Year,Month,Day,Hour,Minute,Value (Times are PST for temperature in C)
2013,09,10,00,00,12.70
2013,09,10,00,01,12.70
2013,09,10,00,02,12.70
2013,09,10,00,03,12.70
2013,09,10,00,04,12.80
2013,09,10,00,05,12.80
2013,09,10,00,06,12.80
2013,09,10,00,07,12.80
2013,09,10,00,08,12.80
2013,09,10,00,09,12.80
2013,09,10,00,10,12.80
2013,09,10,00,11,12.80
2013,09,10,00,12,12.80
2013,09,10,00,13,12.80
2013,09,10,00,14,12.80
2013,09,10,00,15,12.80
2013,09,10,00,16,12.80
2013,09,10,00,17,12.80
2013,09,10,00,18,12.80
2013,09,10,00,19,12.80
2013,09,10,00,20,12.80
2013,09,10,00,21,12.80
2013,09,10,00,22,12.80
2013,09,10,00,23,12.80
2013,09,10,00,24,12.80
2013,09,10,00,25,12.80
2013,09,10,00,26,12.80
2013,09,10,00,27,12.80
2013,09,10,00,28,12.80
2013,09,10,00,29,12.80
2013,09,10,00,30,12.80
2013,09,10,00,31,12.80
2013,09,10,00,32,12.80
2013,09,10,00,33,12.80
2013,09,10,00,34,12.80
2013,09,10,00,35,12.70
2013,09,10,00,36,12.70
2013,09,10,00,37,12.70
2013,09,10,00,38,12.70
2013,09,10,00,39,12.70
2013,09,10,00,40,12.70
2013,09,10,00,41,12.70
2013,09,10,00,42,12.70
2013,09,10,00,43,12.70
2013,09,10,00,44,12.80
2013,09,10,00,45,12.80
2013,09,10,00,46,12.80
2013,09,10,00,47,12.80
2013,09,10,00,48,12.80
2013,09,10,00,49,12.80
2013,09,10,00,50,12.80
2013,09,10,00,51,12.80
2013,09,10,00,52,12.80
2013,09,10,00,53,12.80
2013,09,10,00,54,12.80
2013,09,10,00,55,12.80
2013,09,10,00,56,12.80
2013,09,10,00,57,12.80
2013,09,10,00,58,12.80
2013,09,10,00,59,12.80
2013,09,10,01,00,12.80
2013,09,10,01,01,12.80
2013,09,10,01,02,12.80
2013,09,10,01,03,12.90
2013,09,10,01,04,12.90
2013,09,10,01,05,12.90
2013,09,10,01,06,12.90
2013,09,10,01,07,12.90
2013,09,10,01,08,12.90
2013,09,10,01,09,12.90
2013,09,10,01,10,12.90
2013,09,10,01,11,12.80
2013,09,10,01,12,12.80
2013,09,10,01,13,12.80
2013,09,10,01,14,12.80
2013,09,10,01,15,12.80
2013,09,10,01,16,12.80
2013,09,10,01,17,12.80
2013,09,10,01,18,12.80
2013,09,10,01,19,12.80
2013,09,10,01,20,12.70
2013,09,10,01,21,12.70
2013,09,10,01,22,12.70
2013,09,10,01,23,12.70
2013,09,10,01,24,12.60
2013,09,10,01,25,12.60
2013,09,10,01,26,12.60
2013,09,10,01,27,12.60
2013,09,10,01,28,12.60
2013,09,10,01,29,12.50
2013,09,10,01,30,12.50
2013,09,10,01,31,12.50
2013,09,10,01,32,12.40
2013,09,10,01,33,12.40
2013,09,10,01,34,12.30
2013,09,10,01,35,12.30
2013,09,10,01,36,12.30
2013,09,10,01,37,12.30
2013,09,10,01,38,12.30
2013,09,10,01,39,12.30
2013,09,10,01,40,12.30
2013,09,10,01,41,12.30
2013,09,10,01,42,12.30
2013,09,10,01,43,12.30
2013,09,10,01,44,12.30
2013,09,10,01,45,12.30
2013,09,10,01,46,12.30
2013,09,10,01,47,12.30
2013,09,10,01,48,12.30
2013,09,10,01,49,12.30
2013,09,10,01,50,12.30
2013,09,10,01,51,12.30
2013,09,10,01,52,12.30
2013,09,10,01,53,12.30
2013,09,10,01,54,12.30
2013,09,10,01,55,12.30
2013,09,10,01,56,12.30
2013,09,10,01,57,12.20
2013,09,10,01,58,12.20
2013,09,10,01,59,12.20
2013,09,10,02,00,12.10
2013,09,10,02,01,12.10
2013,09,10,02,02,12.10
2013,09,10,02,03,12.10
2013,09,10,02,04,12.00
2013,09,10,02,05,12.00
2013,09,10,02,06,12.00
2013,09,10,02,07,11.90
2013,09,10,02,08,11.90
2013,09,10,02,09,11.90
2013,09,10,02,10,11.80
2013,09,10,02,11,11.80
2013,09,10,02,12,11.80
2013,09,10,02,13,11.80
2013,09,10,02,14,11.80
2013,09,10,02,15,11.80
2013,09,10,02,16,11.70
2013,09,10,02,17,11.70
2013,09,10,02,18,11.70
2013,09,10,02,19,11.70
2013,09,10,02,20,11.70
2013,09,10,02,21,11.60
2013,09,10,02,22,11.60
2013,09,10,02,23,11.60
2013,09,10,02,24,11.60
2013,09,10,02,25,11.60
2013,09,10,02,26,11.60
2013,09,10,02,27,11.60
2013,09,10,02,28,11.60
2013,09,10,02,29,11.60
2013,09,10,02,30,11.60
2013,09,10,02,31,11.60
2013,09,10,02,32,11.60
2013,09,10,02,33,11.60
2013,09,10,02,34,11.60
2013,09,10,02,35,11.60
2013,09,10,02,36,11.60
2013,09,10,02,37,11.60
2013,09,10,02,38,11.60
2013,09,10,02,39,11.60
2013,09,10,02,40,11.50
2013,09,10,02,41,11.40
2013,09,10,02,42,11.40
2013,09,10,02,43,11.40
2013,09,10,02,44,11.40
2013,09,10,02,45,11.40
2013,09,10,02,46,11.40
2013,09,10,02,47,11.40
2013,09,10,02,48,11.40
2013,09,10,02,49,11.40
2013,09,10,02,50,11.30
2013,09,10,02,51,11.30
2013,09,10,02,52,11.30
2013,09,10,02,53,11.30
2013,09,10,02,54,11.30
2013,09,10,02,55,11.30
2013,09,10,02,56,11.30
2013,09,10,02,57,11.20
2013,09,10,02,58,11.20
2013,09,10,02,59,11.20
2013,09,10,03,00,11.20
2013,09,10,03,01,11.20
2013,09,10,03,02,11.20
2013,09,10,03,03,11.20
2013,09,10,03,04,11.10
2013,09,10,03,05,11.10
2013,09,10,03,06,11.10
2013,09,10,03,07,11.10
2013,09,10,03,08,11.10
2013,09,10,03,09,11.10
2013,09,10,03,10,11.10
2013,09,10,03,11,11.10
2013,09,10,03,12,11.00
2013,09,10,03,13,10.90
2013,09,10,03,14,10.90
2013,09,10,03,15,10.90
2013,09,10,03,16,10.90
2013,09,10,03,17,10.90
2013,09,10,03,18,10.90
2013,09,10,03,19,10.90
2013,09,10,03,20,10.90
2013,09,10,03,21,10.90
2013,09,10,03,22,10.90
2013,09,10,03,23,10.90
2013,09,10,03,24,10.90
2013,09,10,03,25,10.90
2013,09,10,03,26,10.90
2013,09,10,03,27,10.90
2013,09,10,03,28,10.90
2013,09,10,03,29,10.90
2013,09,10,03,30,10.90
2013,09,10,03,31,10.90
2013,09,10,03,32,10.90
2013,09,10,03,33,10.90
2013,09,10,03,34,10.90
2013,09,10,03,35,10.90
2013,09,10,03,36,10.90
2013,09,10,03,37,10.90
2013,09,10,03,38,10.90
2013,09,10,03,39,10.90
2013,09,10,03,40,10.90
2013,09,10,03,41,10.90
2013,09,10,03,42,10.90
2013,09,10,03,43,10.90
2013,09,10,03,44,10.90
2013,09,10,03,45,10.90
2013,09,10,03,46,10.90
2013,09,10,03,47,10.90
2013,09,10,03,48,10.90
2013,09,10,03,49,10.90
2013,09,10,03,50,10.90
2013,09,10,03,51,10.80
2013,09,10,03,52,10.80
2013,09,10,03,53,10.80
2013,09,10,03,54,10.80
2013,09,10,03,55,10.90
2013,09,10,03,56,10.90
2013,09,10,03,57,10.90
2013,09,10,03,58,10.90
2013,09,10,03,59,10.90
2013,09,10,04,00,10.90
2013,09,10,04,01,10.90
2013,09,10,04,02,10.90
2013,09,10,04,03,10.90
2013,09,10,04,04,10.90
2013,09,10,04,05,10.90
2013,09,10,04,06,10.80
2013,09,10,04,07,10.80
2013,09,10,04,08,10.80
2013,09,10,04,09,10.80
2013,09,10,04,10,10.80
2013,09,10,04,11,10.80
2013,09,10,04,12,10.80
2013,09,10,04,13,10.80
2013,09,10,04,14,10.80
2013,09,10,04,15,10.80
2013,09,10,04,16,10.80
2013,09,10,04,17,10.80
2013,09,10,04,18,10.80
2013,09,10,04,19,10.80
2013,09,10,04,20,10.80
2013,09,10,04,21,10.80
2013,09,10,04,22,10.80
2013,09,10,04,23,10.80
2013,09,10,04,24,10.90
2013,09,10,04,25,10.90
2013,09,10,04,26,10.90
2013,09,10,04,27,10.90
2013,09,10,04,28,10.90
2013,09,10,04,29,10.90
2013,09,10,04,30,10.90
2013,09,10,04,31,10.90
2013,09,10,04,32,10.90
2013,09,10,04,33,10.90
2013,09,10,04,34,11.00
2013,09,10,04,35,11.10
2013,09,10,04,36,11.10
2013,09,10,04,37,11.10
2013,09,10,04,38,11.10
2013,09,10,04,39,11.10
2013,09,10,04,40,11.10
2013,09,10,04,41,11.10
2013,09,10,04,42,11.10
2013,09,10,04,43,11.10
2013,09,10,04,44,11.10
2013,09,10,04,45,11.10
2013,09,10,04,46,11.20
2013,09,10,04,47,11.20
2013,09,10,04,48,11.20
2013,09,10,04,49,11.20
2013,09,10,04,50,11.20
2013,09,10,04,51,11.20
2013,09,10,04,52,11.20
2013,09,10,04,53,11.10
2013,09,10,04,54,11.10
2013,09,10,04,55,11.10
2013,09,10,04,56,11.00
2013,09,10,04,57,10.90
2013,09,10,04,58,10.90
2013,09,10,04,59,10.90
2013,09,10,05,00,10.90
2013,09,10,05,01,10.90
2013,09,10,05,02,10.90
2013,09,10,05,03,10.90
2013,09,10,05,04,10.90
2013,09,10,05,05,10.90
2013,09,10,05,06,10.80
2013,09,10,05,07,10.80
2013,09,10,05,08,10.80
2013,09,10,05,09,10.80
2013,09,10,05,10,10.80
2013,09,10,05,11,10.80
2013,09,10,05,12,10.80
2013,09,10,05,13,10.90
2013,09,10,05,14,10.90
2013,09,10,05,15,10.90
2013,09,10,05,16,10.90
2013,09,10,05,17,10.90
2013,09,10,05,18,10.90
2013,09,10,05,19,10.90
2013,09,10,05,20,10.90
2013,09,10,05,21,11.00
2013,09,10,05,22,11.10
2013,09,10,05,23,11.10
2013,09,10,05,24,11.10
2013,09,10,05,25,11.10
2013,09,10,05,26,11.10
2013,09,10,05,27,11.10
2013,09,10,05,28,11.00
2013,09,10,05,29,10.90
2013,09,10,05,30,10.90
2013,09,10,05,31,10.90
2013,09,10,05,32,10.90
2013,09,10,05,33,10.90
2013,09,10,05,34,10.90
2013,09,10,05,35,10.90
2013,09,10,05,36,11.00
2013,09,10,05,37,11.10
2013,09,10,05,38,11.10
2013,09,10,05,39,11.10
2013,09,10,05,40,11.10
2013,09,10,05,41,11.10
2013,09,10,05,42,11.00
2013,09,10,05,43,10.90
2013,09,10,05,44,10.90
2013,09,10,05,45,10.90
2013,09,10,05,46,10.90
2013,09,10,05,47,10.90
2013,09,10,05,48,10.80
2013,09,10,05,49,10.80
2013,09,10,05,50,10.70
2013,09,10,05,51,10.70
2013,09,10,05,52,10.70
2013,09,10,05,53,10.60
2013,09,10,05,54,10.60
2013,09,10,05,55,10.60
2013,09,10,05,56,10.70
2013,09,10,05,57,10.70
2013,09,10,05,58,10.70
2013,09,10,05,59,10.80
2013,09,10,06,00,10.80
2013,09,10,06,01,10.80
2013,09,10,06,02,10.80
2013,09,10,06,03,10.80
2013,09,10,06,04,10.90
2013,09,10,06,05,10.90
2013,09,10,06,06,11.00
2013,09,10,06,07,11.10
2013,09,10,06,08,11.10
2013,09,10,06,09,11.10
2013,09,10,06,10,11.10
2013,09,10,06,11,11.10
2013,09,10,06,12,11.10
2013,09,10,06,13,11.10
2013,09,10,06,14,11.10
2013,09,10,06,15,11.20
2013,09,10,06,16,11.20
2013,09,10,06,17,11.20
2013,09,10,06,18,11.20
2013,09,10,06,19,11.20
2013,09,10,06,20,11.10
2013,09,10,06,21,11.10
2013,09,10,06,22,11.10
2013,09,10,06,23,11.10
2013,09,10,06,24,11.10
2013,09,10,06,25,11.10
2013,09,10,06,26,10.90
2013,09,10,06,27,10.90
2013,09,10,06,28,10.90
2013,09,10,06,29,10.90
2013,09,10,06,30,10.90
2013,09,10,06,31,10.90
2013,09,10,06,32,10.90
2013,09,10,06,33,10.90
2013,09,10,06,34,10.90
2013,09,10,06,35,10.90
2013,09,10,06,36,10.90
2013,09,10,06,37,10.90
2013,09,10,06,38,10.90
2013,09,10,06,39,10.90
2013,09,10,06,40,10.90
2013,09,10,06,41,10.80
2013,09,10,06,42,10.80
2013,09,10,06,43,10.80
2013,09,10,06,44,10.80
2013,09,10,06,45,10.70
2013,09,10,06,46,10.70
2013,09,10,06,47,10.70
2013,09,10,06,48,10.60
2013,09,10,06,49,10.60
2013,09,10,06,50,10.60
2013,09,10,06,51,10.60
2013,09,10,06,52,10.60
2013,09,10,06,53,10.60
2013,09,10,06,54,10.60
2013,09,10,06,55,10.60
2013,09,10,06,56,10.70
2013,09,10,06,57,10.70
2013,09,10,06,58,10.80
2013,09,10,06,59,10.80
2013,09,10,07,00,10.80
2013,09,10,07,01,10.80
2013,09,10,07,02,10.80
2013,09,10,07,03,10.80
2013,09,10,07,04,10.80
2013,09,10,07,05,10.80
2013,09,10,07,06,10.80
2013,09,10,07,07,10.90
2013,09,10,07,08,10.90
2013,09,10,07,09,10.90
2013,09,10,07,10,10.80
2013,09,10,07,11,10.80
2013,09,10,07,12,10.80
2013,09,10,07,13,10.80
2013,09,10,07,14,10.80
2013,09,10,07,15,10.80
2013,09,10,07,16,10.80
2013,09,10,07,17,10.80
2013,09,10,07,18,10.90
2013,09,10,07,19,10.90
2013,09,10,07,20,10.90
2013,09,10,07,21,11.00
2013,09,10,07,22,11.10
2013,09,10,07,23,11.20
2013,09,10,07,24,11.30
2013,09,10,07,25,11.50
2013,09,10,07,26,11.60
2013,09,10,07,27,11.70
2013,09,10,07,28,11.80
2013,09,10,07,29,11.90
2013,09,10,07,30,12.00
2013,09,10,07,31,12.00
2013,09,10,07,32,12.10
2013,09,10,07,33,12.10
2013,09,10,07,34,12.20
2013,09,10,07,35,12.20
2013,09,10,07,36,12.20
2013,09,10,07,37,12.30
2013,09,10,07,38,12.30
2013,09,10,07,39,12.40
2013,09,10,07,40,12.40
2013,09,10,07,41,12.40
2013,09,10,07,42,12.50
2013,09,10,07,43,12.50
2013,09,10,07,44,12.50
2013,09,10,07,45,12.50
2013,09,10,07,46,12.60
2013,09,10,07,47,12.60
2013,09,10,07,48,12.60
2013,09,10,07,49,12.70
2013,09,10,07,50,12.70
2013,09,10,07,51,12.80
2013,09,10,07,52,12.80
2013,09,10,07,53,12.80
2013,09,10,07,54,12.80
2013,09,10,07,55,12.90
2013,09,10,07,56,12.90
2013,09,10,07,57,13.00
2013,09,10,07,58,13.00
2013,09,10,07,59,13.10
2013,09,10,08,00,13.10
2013,09,10,08,01,13.20
2013,09,10,08,02,13.20
2013,09,10,08,03,13.30
2013,09,10,08,04,13.30
2013,09,10,08,05,13.30
2013,09,10,08,06,13.40
2013,09,10,08,07,13.50
2013,09,10,08,08,13.50
2013,09,10,08,09,13.60
2013,09,10,08,10,13.70
2013,09,10,08,11,13.70
2013,09,10,08,12,13.70
2013,09,10,08,13,13.80
2013,09,10,08,14,13.90
2013,09,10,08,15,13.90
2013,09,10,08,16,14.00
2013,09,10,08,17,14.10
2013,09,10,08,18,14.10
2013,09,10,08,19,14.20
2013,09,10,08,20,14.20
2013,09,10,08,21,14.30
2013,09,10,08,22,14.30
2013,09,10,08,23,14.40
2013,09,10,08,24,14.40
2013,09,10,08,25,14.50
2013,09,10,08,26,14.60
2013,09,10,08,27,14.70
2013,09,10,08,28,14.80
2013,09,10,08,29,14.90
2013,09,10,08,30,15.00
2013,09,10,08,31,15.10
2013,09,10,08,32,15.10
2013,09,10,08,33,15.00
2013,09,10,08,34,15.00
2013,09,10,08,35,14.90
2013,09,10,08,36,14.90
2013,09,10,08,37,14.90
2013,09,10,08,38,14.90
2013,09,10,08,39,15.00
2013,09,10,08,40,15.00
2013,09,10,08,41,15.00
2013,09,10,08,42,15.00
2013,09,10,08,43,15.00
2013,09,10,08,44,15.10
2013,09,10,08,45,15.10
2013,09,10,08,46,15.20
2013,09,10,08,47,15.20
2013,09,10,08,48,15.20
2013,09,10,08,49,15.30
2013,09,10,08,50,15.30
2013,09,10,08,51,15.30
2013,09,10,08,52,15.40
2013,09,10,08,53,15.40
2013,09,10,08,54,15.40
2013,09,10,08,55,15.50
2013,09,10,08,56,15.50
2013,09,10,08,57,15.60
2013,09,10,08,58,15.60
2013,09,10,08,59,15.70
2013,09,10,09,00,15.80
2013,09,10,09,01,15.80
2013,09,10,09,02,15.80
2013,09,10,09,03,15.90
2013,09,10,09,04,16.00
2013,09,10,09,05,16.10
2013,09,10,09,06,16.10
2013,09,10,09,07,16.20
2013,09,10,09,08,16.20
2013,09,10,09,09,16.30
2013,09,10,09,10,16.30
2013,09,10,09,11,16.40
2013,09,10,09,12,16.50
2013,09,10,09,13,16.60
2013,09,10,09,14,16.60
2013,09,10,09,15,16.70
2013,09,10,09,16,16.80
2013,09,10,09,17,16.80
2013,09,10,09,18,16.90
2013,09,10,09,19,17.00
2013,09,10,09,20,17.00
2013,09,10,09,21,17.10
2013,09,10,09,22,17.10
2013,09,10,09,23,17.20
2013,09,10,09,24,17.30
2013,09,10,09,25,17.30
2013,09,10,09,26,17.50
2013,09,10,09,27,17.50
2013,09,10,09,28,17.60
2013,09,10,09,29,17.70
2013,09,10,09,30,17.80
2013,09,10,09,31,17.90
2013,09,10,09,32,17.90
2013,09,10,09,33,18.00
2013,09,10,09,34,18.20
2013,09,10,09,35,18.30
2013,09,10,09,36,18.40
2013,09,10,09,37,18.50
2013,09,10,09,38,18.60
2013,09,10,09,39,18.70
2013,09,10,09,40,18.70
2013,09,10,09,41,18.90
2013,09,10,09,42,18.90
2013,09,10,09,43,18.90
2013,09,10,09,44,18.90
2013,09,10,09,45,18.90
2013,09,10,09,46,19.00
2013,09,10,09,47,19.10
2013,09,10,09,48,19.10
2013,09,10,09,49,19.00
2013,09,10,09,50,19.10
2013,09,10,09,51,19.00
2013,09,10,09,52,18.90
2013,09,10,09,53,18.90
2013,09,10,09,54,18.80
2013,09,10,09,55,18.80
2013,09,10,09,56,18.70
2013,09,10,09,57,18.70
2013,09,10,09,58,18.60
2013,09,10,09,59,18.60
2013,09,10,10,00,18.70
2013,09,10,10,01,18.70
2013,09,10,10,02,18.70
2013,09,10,10,03,18.70
2013,09,10,10,04,18.70
2013,09,10,10,05,18.80
2013,09,10,10,06,18.90
2013,09,10,10,07,18.90
2013,09,10,10,08,19.00
2013,09,10,10,09,19.10
2013,09,10,10,10,19.10
2013,09,10,10,11,19.10
2013,09,10,10,12,19.10
2013,09,10,10,13,19.10
2013,09,10,10,14,19.10
2013,09,10,10,15,19.20
2013,09,10,10,16,19.20
2013,09,10,10,17,19.30
2013,09,10,10,18,19.20
2013,09,10,10,19,19.20
2013,09,10,10,20,19.20
2013,09,10,10,21,19.30
2013,09,10,10,22,19.30
2013,09,10,10,23,19.40
2013,09,10,10,24,19.60
2013,09,10,10,25,19.70
2013,09,10,10,26,19.80
2013,09,10,10,27,19.90
2013,09,10,10,28,19.90
2013,09,10,10,29,20.00
2013,09,10,10,30,20.10
2013,09,10,10,31,20.10
2013,09,10,10,32,20.20
2013,09,10,10,33,20.20
2013,09,10,10,34,20.20
2013,09,10,10,35,20.20
2013,09,10,10,36,20.20
2013,09,10,10,37,20.30
2013,09,10,10,38,20.30
2013,09,10,10,39,20.20
2013,09,10,10,40,20.20
2013,09,10,10,41,20.20
2013,09,10,10,42,20.20
2013,09,10,10,43,20.20
2013,09,10,10,44,20.20
2013,09,10,10,45,20.20
2013,09,10,10,46,20.20
2013,09,10,10,47,20.20
2013,09,10,10,48,20.10
2013,09,10,10,49,20.00
2013,09,10,10,50,19.90
2013,09,10,10,51,19.90
2013,09,10,10,52,19.90
2013,09,10,10,53,19.90
2013,09,10,10,54,19.90
2013,09,10,10,55,19.80
2013,09,10,10,56,19.80
2013,09,10,10,57,19.90
2013,09,10,10,58,20.00
2013,09,10,10,59,20.10
2013,09,10,11,00,20.10
2013,09,10,11,01,20.20
2013,09,10,11,02,20.20
2013,09,10,11,03,20.20
2013,09,10,11,04,20.30
2013,09,10,11,05,20.30
2013,09,10,11,06,20.30
2013,09,10,11,07,20.30
2013,09,10,11,08,20.20
2013,09,10,11,09,20.20
2013,09,10,11,10,20.20
2013,09,10,11,11,20.20
2013,09,10,11,12,20.30
2013,09,10,11,13,20.30
2013,09,10,11,14,20.30
2013,09,10,11,15,20.30
2013,09,10,11,16,20.30
2013,09,10,11,17,20.40
2013,09,10,11,18,20.50
2013,09,10,11,19,20.50
2013,09,10,11,20,20.50
2013,09,10,11,21,20.50
2013,09,10,11,22,20.60
2013,09,10,11,23,20.70
2013,09,10,11,24,20.80
2013,09,10,11,25,20.80
2013,09,10,11,26,20.80
2013,09,10,11,27,20.90
2013,09,10,11,28,20.90
2013,09,10,11,29,21.00
2013,09,10,11,30,21.00
2013,09,10,11,31,21.00
2013,09,10,11,32,21.00
2013,09,10,11,33,21.00
2013,09,10,11,34,21.00
2013,09,10,11,35,21.00
2013,09,10,11,36,21.10
2013,09,10,11,37,21.10
2013,09,10,11,38,21.10
2013,09,10,11,39,21.10
2013,09,10,11,40,21.20
2013,09,10,11,41,21.30
2013,09,10,11,42,21.30
2013,09,10,11,43,21.30
2013,09,10,11,44,21.30
2013,09,10,11,45,21.30
2013,09,10,11,46,21.30
2013,09,10,11,47,21.30
2013,09,10,11,48,21.30
2013,09,10,11,49,21.30
2013,09,10,11,50,21.40
2013,09,10,11,51,21.50
2013,09,10,11,52,21.60
2013,09,10,11,53,21.70
2013,09,10,11,54,21.70
2013,09,10,11,55,21.80
2013,09,10,11,56,21.80
2013,09,10,11,57,21.90
2013,09,10,11,58,21.90
2013,09,10,11,59,21.90
2013,09,10,12,00,21.90
2013,09,10,12,01,21.90
2013,09,10,12,02,22.00
2013,09,10,12,03,22.10
2013,09,10,12,04,22.20
2013,09,10,12,05,22.10
2013,09,10,12,06,22.00
2013,09,10,12,07,21.80
2013,09,10,12,08,21.70
2013,09,10,12,09,21.70
2013,09,10,12,10,21.70
2013,09,10,12,11,21.80
2013,09,10,12,12,21.80
2013,09,10,12,13,21.90
2013,09,10,12,14,21.90
2013,09,10,12,15,21.90
2013,09,10,12,16,21.80
2013,09,10,12,17,21.80
2013,09,10,12,18,21.70
2013,09,10,12,19,21.70
2013,09,10,12,20,21.70
2013,09,10,12,21,21.70
2013,09,10,12,22,21.70
2013,09,10,12,23,21.70
2013,09,10,12,24,21.70
2013,09,10,12,25,21.70
2013,09,10,12,26,21.70
2013,09,10,12,27,21.80
2013,09,10,12,28,21.90
2013,09,10,12,29,21.90
2013,09,10,12,30,21.90
2013,09,10,12,31,21.90
2013,09,10,12,32,22.00
2013,09,10,12,33,22.10
2013,09,10,12,34,22.20
2013,09,10,12,35,22.20
2013,09,10,12,36,22.30
2013,09,10,12,37,22.20
2013,09,10,12,38,22.20
2013,09,10,12,39,22.20
2013,09,10,12,40,22.10
2013,09,10,12,41,22.10
2013,09,10,12,42,22.10
2013,09,10,12,43,22.10
2013,09,10,12,44,22.00
2013,09,10,12,45,22.00
2013,09,10,12,46,22.00
2013,09,10,12,47,22.10
2013,09,10,12,48,22.20
2013,09,10,12,49,22.10
2013,09,10,12,50,22.10
2013,09,10,12,51,22.10
2013,09,10,12,52,22.10
2013,09,10,12,53,22.10
2013,09,10,12,54,22.20
2013,09,10,12,55,22.20
2013,09,10,12,56,22.10
2013,09,10,12,57,22.10
2013,09,10,12,58,22.10
2013,09,10,12,59,22.10
2013,09,10,13,00,22.10
2013,09,10,13,01,22.10
2013,09,10,13,02,22.20
2013,09,10,13,03,22.20
2013,09,10,13,04,22.30
2013,09,10,13,05,22.20
2013,09,10,13,06,22.10
2013,09,10,13,07,22.10
2013,09,10,13,08,22.10
2013,09,10,13,09,22.10
2013,09,10,13,10,22.20
2013,09,10,13,11,22.10
2013,09,10,13,12,22.10
2013,09,10,13,13,22.10
2013,09,10,13,14,22.20
2013,09,10,13,15,22.20
2013,09,10,13,16,22.30
2013,09,10,13,17,22.30
2013,09,10,13,18,22.30
2013,09,10,13,19,22.30
2013,09,10,13,20,22.20
2013,09,10,13,21,22.30
2013,09,10,13,22,22.30
2013,09,10,13,23,22.40
2013,09,10,13,24,22.40
2013,09,10,13,25,22.50
2013,09,10,13,26,22.50
2013,09,10,13,27,22.60
2013,09,10,13,28,22.60
2013,09,10,13,29,22.70
2013,09,10,13,30,22.80
2013,09,10,13,31,22.80
2013,09,10,13,32,22.90
2013,09,10,13,33,22.90
2013,09,10,13,34,23.00
2013,09,10,13,35,23.10
2013,09,10,13,36,23.10
2013,09,10,13,37,23.10
2013,09,10,13,38,23.00
2013,09,10,13,39,22.90
2013,09,10,13,40,22.90
2013,09,10,13,41,22.80
2013,09,10,13,42,22.80
2013,09,10,13,43,22.80
2013,09,10,13,44,22.80
2013,09,10,13,45,22.80
2013,09,10,13,46,22.80
2013,09,10,13,47,22.90
2013,09,10,13,48,22.90
2013,09,10,13,49,22.90
2013,09,10,13,50,22.90
2013,09,10,13,51,23.00
2013,09,10,13,52,23.10
2013,09,10,13,53,23.20
2013,09,10,13,54,23.10
2013,09,10,13,55,23.00
2013,09,10,13,56,22.90
2013,09,10,13,57,23.00
2013,09,10,13,58,22.90
2013,09,10,13,59,22.90
2013,09,10,14,00,22.90
2013,09,10,14,01,22.90
2013,09,10,14,02,22.90
2013,09,10,14,03,22.90
2013,09,10,14,04,22.90
2013,09,10,14,05,22.90
2013,09,10,14,06,22.90
2013,09,10,14,07,22.90
2013,09,10,14,08,22.90
2013,09,10,14,09,22.90
2013,09,10,14,10,22.90
2013,09,10,14,11,22.90
2013,09,10,14,12,22.90
2013,09,10,14,13,22.90
2013,09,10,14,14,22.90
2013,09,10,14,15,22.90
2013,09,10,14,16,22.90
2013,09,10,14,17,22.90
2013,09,10,14,18,22.90
2013,09,10,14,19,23.00
2013,09,10,14,20,23.10
2013,09,10,14,21,23.20
2013,09,10,14,22,23.30
2013,09,10,14,23,23.30
2013,09,10,14,24,23.30
2013,09,10,14,25,23.30
2013,09,10,14,26,23.40
2013,09,10,14,27,23.50
2013,09,10,14,28,23.60
2013,09,10,14,29,23.60
2013,09,10,14,30,23.60
2013,09,10,14,31,23.50
2013,09,10,14,32,23.40
2013,09,10,14,33,23.30
2013,09,10,14,34,23.30
2013,09,10,14,35,23.30
2013,09,10,14,36,23.40
2013,09,10,14,37,23.40
2013,09,10,14,38,23.40
2013,09,10,14,39,23.50
2013,09,10,14,40,23.60
2013,09,10,14,41,23.60
2013,09,10,14,42,23.60
2013,09,10,14,43,23.60
2013,09,10,14,44,23.60
2013,09,10,14,45,23.50
2013,09,10,14,46,23.40
2013,09,10,14,47,23.50
2013,09,10,14,48,23.60
2013,09,10,14,49,23.60
2013,09,10,14,50,23.60
2013,09,10,14,51,23.60
2013,09,10,14,52,23.60
2013,09,10,14,53,23.60
2013,09,10,14,54,23.60
2013,09,10,14,55,23.60
2013,09,10,14,56,23.50
2013,09,10,14,57,23.40
2013,09,10,14,58,23.30
2013,09,10,14,59,23.30
2013,09,10,15,00,23.20
2013,09,10,15,01,23.10
2013,09,10,15,02,23.10
2013,09,10,15,03,23.10
2013,09,10,15,04,23.00
2013,09,10,15,05,22.90
2013,09,10,15,06,22.90
2013,09,10,15,07,22.90
2013,09,10,15,08,22.90
2013,09,10,15,09,22.90
2013,09,10,15,10,22.90
2013,09,10,15,11,22.90
2013,09,10,15,12,22.90
2013,09,10,15,13,22.90
2013,09,10,15,14,22.90
2013,09,10,15,15,22.90
2013,09,10,15,16,22.90
2013,09,10,15,17,22.90
2013,09,10,15,18,22.90
2013,09,10,15,19,22.90
2013,09,10,15,20,22.90
2013,09,10,15,21,22.90
2013,09,10,15,22,22.90
2013,09,10,15,23,22.90
2013,09,10,15,24,23.00
2013,09,10,15,25,23.10
2013,09,10,15,26,23.20
2013,09,10,15,27,23.30
2013,09,10,15,28,23.30
2013,09,10,15,29,23.30
2013,09,10,15,30,23.40
2013,09,10,15,31,23.40
2013,09,10,15,32,23.50
2013,09,10,15,33,23.60
2013,09,10,15,34,23.60
2013,09,10,15,35,23.70
2013,09,10,15,36,23.70
2013,09,10,15,37,23.70
2013,09,10,15,38,23.80
2013,09,10,15,39,23.90
2013,09,10,15,40,23.90
2013,09,10,15,41,24.00
2013,09,10,15,42,24.10
2013,09,10,15,43,24.10
2013,09,10,15,44,24.00
2013,09,10,15,45,23.90
2013,09,10,15,46,23.70
2013,09,10,15,47,23.70
2013,09,10,15,48,23.60
2013,09,10,15,49,23.60
2013,09,10,15,50,23.50
2013,09,10,15,51,23.40
2013,09,10,15,52,23.40
2013,09,10,15,53,23.40
2013,09,10,15,54,23.40
2013,09,10,15,55,23.40
2013,09,10,15,56,23.50
2013,09,10,15,57,23.60
2013,09,10,15,58,23.60
2013,09,10,15,59,23.70
2013,09,10,16,00,23.70
2013,09,10,16,01,23.70
2013,09,10,16,02,23.70
2013,09,10,16,03,23.70
2013,09,10,16,04,23.70
2013,09,10,16,05,23.70
2013,09,10,16,06,23.70
2013,09,10,16,07,23.70
2013,09,10,16,08,23.60
2013,09,10,16,09,23.60
2013,09,10,16,10,23.40
2013,09,10,16,11,23.40
2013,09,10,16,12,23.30
2013,09,10,16,13,23.30
2013,09,10,16,14,23.30
2013,09,10,16,15,23.30
2013,09,10,16,16,23.30
2013,09,10,16,17,23.30
2013,09,10,16,18,23.30
2013,09,10,16,19,23.40
2013,09,10,16,20,23.40
2013,09,10,16,21,23.40
2013,09,10,16,22,23.40
2013,09,10,16,23,23.40
2013,09,10,16,24,23.40
2013,09,10,16,25,23.30
2013,09,10,16,26,23.30
2013,09,10,16,27,23.30
2013,09,10,16,28,23.30
2013,09,10,16,29,23.40
2013,09,10,16,30,23.40
2013,09,10,16,31,23.40
2013,09,10,16,32,23.40
2013,09,10,16,33,23.30
2013,09,10,16,34,23.30
2013,09,10,16,35,23.30
2013,09,10,16,36,23.30
2013,09,10,16,37,23.30
2013,09,10,16,38,23.40
2013,09,10,16,39,23.40
2013,09,10,16,40,23.50
2013,09,10,16,41,23.60
2013,09,10,16,42,23.60
2013,09,10,16,43,23.50
2013,09,10,16,44,23.60
2013,09,10,16,45,23.60
2013,09,10,16,46,23.60
2013,09,10,16,47,23.60
2013,09,10,16,48,23.70
2013,09,10,16,49,23.80
2013,09,10,16,50,23.80
2013,09,10,16,51,23.80
2013,09,10,16,52,23.80
2013,09,10,16,53,23.80
2013,09,10,16,54,23.90
2013,09,10,16,55,23.90
2013,09,10,16,56,23.90
2013,09,10,16,57,23.90
2013,09,10,16,58,23.80
2013,09,10,16,59,23.80
2013,09,10,17,00,23.80
2013,09,10,17,01,23.80
2013,09,10,17,02,23.80
2013,09,10,17,03,23.80
2013,09,10,17,04,23.80
2013,09,10,17,05,23.70
2013,09,10,17,06,23.70
2013,09,10,17,07,23.70
2013,09,10,17,08,23.70
2013,09,10,17,09,23.70
2013,09,10,17,10,23.70
2013,09,10,17,11,23.60
2013,09,10,17,12,23.60
2013,09,10,17,13,23.60
2013,09,10,17,14,23.50
2013,09,10,17,15,23.40
2013,09,10,17,16,23.30
2013,09,10,17,17,23.30
2013,09,10,17,18,23.30
2013,09,10,17,19,23.20